Regional Weather Roundup
Issued by NWS Boston, MA

Home | Current Version | Previous Version | Text Only | Print | Product List | Glossary On
Versions: 1 2 3 4 5 6 7 8 9 10 11 12 13 14 15 16 17 18 19 20 21 22 23 24 25 26 27 28
000
ASUS41 KBOX 251410
RWRBOX

REGIONAL WEATHER ROUNDUP
NATIONAL WEATHER SERVICE TAUNTON MA
1000 AM EDT MON SEP 25 2017

NOTE:  "FAIR" INDICATES FEW OR NO CLOUDS BELOW 12,000 FEET WITH NO
SIGNIFICANT WEATHER AND/OR OBSTRUCTIONS TO VISIBILITY.

MAZALL-251500-
EASTERN MASSACHUSETTS

CITY           SKY/WX    TMP DP  RH WIND       PRES   REMARKS
BOSTON         SUNNY     72  66  81 CALM      30.09R
BEVERLY        SUNNY     78  68  71 CALM      30.09R
LAWRENCE       SUNNY     80  70  71 NE7       30.11R
BEDFORD        SUNNY     78  67  68 CALM      30.08S
BLUE HILL        N/A     77  65  66 VRB3      30.10R
NORWOOD        SUNNY     80  69  69 CALM      30.08R
MARSHFIELD     SUNNY     75  66  73 CALM      30.09S
PLYMOUTH       SUNNY     77  63  61 CALM      30.09S
TAUNTON        SUNNY     76  63  64 CALM      30.08S
NEW BEDFORD    SUNNY     75  66  73 CALM      30.08S
$$

MAZALL-251500-
CAPE COD AND THE ISLANDS

CITY           SKY/WX    TMP DP  RH WIND       PRES   REMARKS
FALMOUTH       SUNNY     73  68  83 E3        30.10S
HYANNIS        SUNNY     75  69  81 E5        30.08S
CHATHAM        CLOUDY    66  66 100 NE3       30.10S
PROVINCETOWN   SUNNY     74  67  78 CALM      30.10R
NANTUCKET      CLOUDY    69  69 100 E8        30.09R
MARTHAS VNYRD  PTSUNNY   70  67  90 E5        30.09R
$$

MAZALL-251500-
CENTRAL AND WESTERN MASSACHUSETTS

CITY           SKY/WX    TMP DP  RH WIND       PRES   REMARKS
WORCESTER      SUNNY     77  66  68 E6        30.13R
FITCHBURG      SUNNY     82  69  64 N5        30.11R
ORANGE         SUNNY     79  70  74 CALM      30.11S
SPRINGFIELD    SUNNY     80  69  68 N5        30.08S
WESTFIELD      SUNNY     80  69  69 N7        30.09R
NORTH ADAMS    SUNNY     72  65  78 CALM      30.12S
PITTSFIELD     SUNNY     78  67  68 NE3       30.13R
$$

RIZALL-251500-
RHODE ISLAND

CITY           SKY/WX    TMP DP  RH WIND       PRES   REMARKS
PROVIDENCE     SUNNY     77  65  66 SE3       30.09S
NEWPORT        SUNNY     74  67  78 S3        30.09R
BLOCK ISLAND   SUNNY     71  67  87 VRB5      30.10R
SMITHFIELD     HAZE      77  68  73 CALM      30.11R VSB 1/2
WESTERLY       SUNNY     75  65  70 SE5       30.10R
$$

CTZALL-251500-
CONNECTICUT

CITY           SKY/WX    TMP DP  RH WIND       PRES   REMARKS
BRADLEY INTL   SUNNY     80  69  69 N6        30.09R
HARTFORD       SUNNY     77  69  76 NE6       30.08S
BRIDGEPORT     SUNNY     75  67  76 E6        30.09R
DANBURY        SUNNY     79  68  69 NE6       30.12R
GROTON         SUNNY     73  64  73 S5        30.08S
NEW HAVEN      SUNNY     76  66  71 SE8       30.09R
CHESTER        FAIR      79  66  65 CALM      30.10S
MERIDEN        SUNNY     79  67  66 VRB3      30.09R
WILLIMANTIC    SUNNY     77  68  73 CALM      30.09R
OXFORD         SUNNY     78  69  73 E6        30.12R
$$

MEZ002-015-021-024-NHZ003-005-008-011-012-014-VTZ005-008-251500-
NORTHERN NEW ENGLAND

CITY           SKY/WX    TMP DP  RH WIND       PRES   REMARKS
PORTLAND ME    MOSUNNY   80  68  66 CALM      30.10S
BANGOR ME      MOSUNNY   77  67  71 E3        30.11R
CONCORD NH     SUNNY     78  69  73 W3        30.11R
MANCHESTER NH  SUNNY     82  69  64 N3        30.08S
NASHUA NH      SUNNY     80  71  74 CALM      30.10S
PORTSMOUTH NH  MOSUNNY   79  69  72 NE5       30.09R
JAFFREY NH     SUNNY     80  70  71 CALM      30.14S
KEENE NH       SUNNY     77  69  76 CALM      30.12S
BURLINGTON VT  MOSUNNY   78  70  76 NE3       30.11S
MT. WASHINGTON PTSUNNY   57  55  94 N5          N/A
$$

NYZ052-076-251500-
EASTERN NEW YORK

CITY           SKY/WX    TMP DP  RH WIND       PRES   REMARKS
ALBANY         SUNNY     76  68  76 N8        30.11S
NEW YORK CITY  SUNNY     77  66  68 NE8       30.07S
$$

ANZALL-251500-
MARINE OBSERVATIONS

STATION/POSITION TIME  TEMP    WIND        PRES    VSBY  WAVE
                       AIR SEA DIR/SP/G                  HT/PER
                 (UTC) (F)     (DEG/KT/KT) (MB)    (MI)  (FT/S)
BOSTON BUOY      1350   65 64  130/  6/  6 1019.0R         2/11
BUZZARDS BAY     1300   65     110/  5/  5 1018.9R
NANTUCKET SOUND  1350   61 62   60/  4/  4 1019.1R         1/15
MASS BAY-STELLWA 1304   64 61  170/  2/  2 1018.0R         2/11
ISLE OF SHOALS   1300   68      10/  7/  7 1018.3R
S OF BLOCK IS    NOT AVBL
$$

......................KEY.........................
  SKY/WX - SKY CONDITION/PRESENT WEATHER
  TMP    - TEMPERATURE IN FAHRENHEIT
  DWPT   - DEWPOINT IN FAHRENHEIT
  RH     - RELATIVE HUMIDITY IN PERCENT
  WIND   - DIRECTION AND SPEED IN MPH
  PRES   - MEAN SEA LEVEL PRESSURE IN INCHES OF HG
  WCI    - WIND CHILL INDEX
  VSB    - VISIBILITY IN MILES
  HX     - HEAT INDEX
  TC     - TEMPERATURE IN CELSIUS
  VRB    - VARIABLE WIND DIRECTION
  N/A    - NOT AVAILABLE




USA.gov is the U.S. government's official web portal to all federal, state and local government web resources and services.